sat.trackr.live / text

‹ back to catalog

STARLINK-3991

NORAD 52641 · 2022-052AV

PAYLOAD ACTIVE UNKNOWN

§ Identity

Operator
Country
US
Launch date
2022-05-14
Launch site
AFETR
Launch vehicle
Mass (kg)
RCS (m²)

Purposes: comms

External: N2YO · Heavens-Above · Gunter

§ Orbital elements

Epoch: 2026-05-25T01:19:56.076960Z

Period
95.44 min
Inclination
53.2155°
Eccentricity
0.0001685
Mean motion
15.08833803 rev/d
Perigee alt
538.6 km
Apogee alt
540.9 km
Semi-major
6,917.9 km
B*
7.9033e-5
RAAN
276.4985°
Arg perigee
80.7807°
Mean anomaly
279.3376°
Rev number
22,266

§ Raw data

STARLINK-39911 52641U 22052AV  26145.05551015  .00000970  00000+0  79033-4 0  99902 52641  53.2155 276.4985 0001685  80.7807 279.3376 15.08833803222666

JSON: /api/v1/satellites/52641 · /tle

For live sub-satellite position, see the globe view (requires WebGL).

§ Visibility from observer

Set your observer location to see the next 7 days of passes ≥ 10°. The values pass through the URL so the page stays shareable.

No JS? Fill the form by hand. The geolocation button needs JavaScript.